Dauntless Aviation
Airports Europe Switzerland
LSTA

Raron Airport

Raron, SWITZERLAND

Airport Info
Suggest Updated Information for this Airport

Location

Latitude / Longitude: 46°18'12"N / 7°49'23"E
  46°18.216'N / 7°49.398'E
  46.3036 / 7.8233
Satellite photo at:
Airport distance calculator
From:
Weather Reports

METAR

LSGS
21.7nm SW
LSGS 181650Z 26014KT 9999 SCT100 SCT200 27/12 Q1013
LSMM
29.4nm N
LSMM 181650Z AUTO 13006KT 080V160 9999NDV SHRA FEW018 BKN037 BKN090 18/15 Q1017 RESHRA RMK
LSZB
39.2nm NW
LSZB 181650Z 15007KT CAVOK 26/18 Q1014 NOSIG
LIMW
39.2nm S
LIMW 181650Z AUTO 09012KT 9999 SCT120/// BKN180/// 26/14 Q1014

TAF

LSGS
21.7nm SW
TAF LSGS 181425Z 1815/1824 25012KT 9999 SCT100 BKN200 BECMG 1819/1821 VRB03KT CAVOK
LSZB
39.2nm NW
TAF LSZB 181425Z 1815/1824 17007KT 9999 FEW030 SCT060 TEMPO 1815/1817 SHRA SCT060TCU PROB40 TEMPO 1815/1817 TSRA SCT060CB BECMG 1819/1821 VRB03KT CAVOK
LIMW
39.2nm S
TAF LIMW 181400Z 1815/1824 10015KT 9999 SCT050 PROB40 TEMPO 1815/1820 TSRA BECMG 1819/1821 VRB05KT
Safelog

 

Dauntless Aviation

© 2007-2019 Dauntless Aviation, all rights reserved
Information provided via PilotNav comes from a variety of official and unofficial data sources. As errors are possible, do not use PilotNav for primary flight planning purposes. Verify any information that you receive via PilotNav with current and canonical charts and other official documents. The material in this database is subject to database copyrights held by Dauntless Aviation and may not be copied without the express permission of Dauntless Aviation - licenses for use of part of all of this data are available for purchase; enquire via the Dauntless Aviation helpdesk. A number of mechanisms and markers exist in the database to protect against and identify infringement / copyright. Automated queries against this website are stictly prohibited, and all activity is logged and analyzed.